Akron, CO

2:16 PM MST on January 17, 2018 (GMT -0700)
Akron-Washington County

Weather History for KAKO - November, 2014

Change the Weather History Date:

Monday, November 17, 2014

  Actual Average Record
Temperature  
Mean Temperature 21 °F 37 °F  
Max Temperature 35 °F 49 °F 74 °F (1999)
Min Temperature 7 °F 25 °F 3 °F (1951)
Degree Days  
Heating Degree Days 44    
Month to date heating degree days 558  
Cooling Degree Days 0    
Month to date cooling degree days 0  
Moisture  
Dew Point 6 °F    
Average Humidity 55    
Maximum Humidity 80    
Minimum Humidity 29    
Precipitation  
Precipitation 0.00 in 0.02 in 0.72 in (1952)
Month to date precipitation 0.21 0.34  
Year to date precipitation 17.97 16.10  
Snow  
Snow 0.00 in - - ()
Snow Depth -    
Sea Level Pressure  
Sea Level Pressure 30.32 in    
Wind  
Wind Speed 12 mph (NW)    
Max Wind Speed 25 mph    
Max Gust Speed 34 mph    
Visibility 10 miles    
Events      
T = Trace of Precipitation, MM = Missing Value Source: NWS Daily Summary

Daily Weather History Graph

Daily Weather History Graph

Search for Another Location

Airport or City:

Trip Planner

Search our weather history database for the weather conditions in past years. The results will help you decide how hot, cold, wet, or windy it might be!

Date:

Astronomy

Nov. 17, 2014 Rise Set
Actual Time 6:40 AM MST 4:34 PM MST
Civil Twilight 6:11 AM MST 5:03 PM MST
Nautical Twilight 5:38 AM MST 5:36 PM MST
Astronomical Twilight 5:06 AM MST 6:08 PM MST
Moon 1:44 AM MST 1:59 PM MST
Length of Visible Light 10h 52m
Length of Day
9h 53m
Waning Crescent, 22% of the Moon is Illuminated
Nov 17
Waning Crescent
Nov 22
New
Nov 29
First Quarter
Dec 6
Full
Dec 14
Last Quarter

Hourly Weather History & Observations

Time (MST) Temp. Windchill Dew Point Humidity Pressure Visibility Wind Dir Wind Speed Gust Speed Precip Events Conditions
12:53 AM 12.0 °F -4.0 °F 7.0 °F 80% 30.30 in 10.0 mi NNW 15.0 mph - N/A   Clear
1:53 AM 12.0 °F -2.0 °F 7.0 °F 80% 30.30 in 10.0 mi West 11.5 mph - N/A   Clear
2:53 AM 14.0 °F -0.2 °F 6.1 °F 71% 30.30 in 10.0 mi WNW 12.7 mph - N/A   Clear
4:53 AM 8.1 °F -5.3 °F 3.0 °F 80% 30.35 in 10.0 mi WNW 9.2 mph - N/A   Clear
5:53 AM 10.0 °F -3.7 °F 3.0 °F 73% 30.35 in 10.0 mi WNW 10.4 mph - N/A   Clear
6:53 AM 12.0 °F -1.3 °F 3.9 °F 70% 30.36 in 10.0 mi WNW 10.4 mph - N/A   Clear
7:53 AM 16.0 °F 4.4 °F 7.0 °F 68% 30.37 in 10.0 mi NW 9.2 mph - N/A   Clear
8:53 AM 19.9 °F 8.6 °F 8.1 °F 60% 30.37 in 10.0 mi WNW 10.4 mph - N/A   Clear
9:53 AM 25.0 °F 13.1 °F 7.0 °F 46% 30.35 in 10.0 mi NNW 13.8 mph - N/A   Clear
10:53 AM 28.9 °F 17.7 °F 7.0 °F 40% 30.30 in 10.0 mi NW 15.0 mph - N/A   Clear
11:53 AM 28.9 °F 18.6 °F 8.1 °F 41% 30.29 in 10.0 mi North 12.7 mph - N/A   Clear
12:53 PM 32.0 °F 20.5 °F 8.1 °F 37% 30.26 in 10.0 mi North 18.4 mph 24.2 mph N/A   Clear
1:53 PM 34.0 °F 21.5 °F 5.0 °F 30% 30.24 in 10.0 mi NNW 24.2 mph 31.1 mph N/A   Clear
2:53 PM 34.0 °F 22.4 °F 5.0 °F 30% 30.23 in 10.0 mi North 20.7 mph 29.9 mph N/A   Clear
3:53 PM 30.9 °F 19.4 °F 5.0 °F 33% 30.26 in 10.0 mi North 17.3 mph - N/A   Clear
4:53 PM 19.9 °F 10.1 °F 5.0 °F 52% 30.34 in 10.0 mi North 8.1 mph - N/A   Clear
5:53 PM 16.0 °F 3.6 °F 5.0 °F 62% 30.35 in 10.0 mi North 10.4 mph - N/A   Clear
6:53 PM 14.0 °F 2.0 °F 5.0 °F 67% 30.36 in 10.0 mi NNW 9.2 mph - N/A   Clear
7:53 PM 19.0 °F 12.3 °F 3.9 °F 52% 30.34 in 10.0 mi NW 4.6 mph - N/A   Clear
8:53 PM 16.0 °F 8.8 °F 3.0 °F 57% 30.34 in 10.0 mi West 4.6 mph - N/A   Clear
9:53 PM 17.1 °F 11.7 °F 3.9 °F 56% 30.32 in 10.0 mi Variable 3.5 mph - N/A   Clear
10:53 PM 15.1 °F 3.3 °F 6.1 °F 68% 30.30 in 10.0 mi West 9.2 mph - N/A   Clear
11:53 PM 15.1 °F 2.5 °F 5.0 °F 64% 30.29 in 10.0 mi SW 10.4 mph - N/A   Clear